KWIWEYAU3 Weather Reports


time (UTC)temp
C
wind
direction
speed
KPH
gust
KPH
rain 1hr
cm
rain 24hr
cm
rain mn
cm
humidity
%
barometer
mb
20260906163516 24 270 3.2 9.7 0.00 0.03 0.03 76 1021.1
20260906162516 24 0.0 6.4 0.00 0.03 0.03 78 1021.0
20260906161517 24 0.0 3.2 0.00 0.03 0.03 80 1021.0
20260906160516 24 0.0 1.6 0.00 0.03 0.03 79 1021.0
20260906155516 24 225 3.2 11.3 0.00 0.03 0.03 82 1020.8
20260906154516 23 0.0 4.8 0.00 0.03 0.03 83 1020.8
20260906153516 23 0.0 3.2 0.00 0.03 0.03 85 1020.8
20260906152516 22 315 1.6 4.8 0.00 0.03 0.03 88 1021.0
20260906151517 22 203 1.6 9.7 0.00 0.03 0.03 88 1021.0
20260906150516 22 270 1.6 8.0 0.00 0.03 0.03 90 1020.9
20260906145516 21 270 1.6 6.4 0.00 0.03 0.03 92 1020.9
20260906144517 21 248 1.6 8.0 0.00 0.03 0.03 95 1020.8
20260906143516 20 0.0 1.6 0.00 0.03 0.03 97 1020.7
20260906142516 20 0.0 4.8 0.00 0.03 0.03 97 1020.6
20260906141517 19 0.0 0.0 0.00 0.03 0.03 98 1020.6
20260906140517 18 203 1.6 3.2 0.00 0.03 0.03 98 1020.6
20260906135517 18 0.0 3.2 0.00 0.03 0.03 98 1020.8
20260906134516 17 0.0 6.4 0.00 0.03 0.03 98 1021.0
20260906133516 17 0.0 3.2 0.00 0.03 0.03 98 1021.0
20260906132536 16 0.0 1.6 0.00 0.03 0.03 98 1020.9
20260906131536 16 0.0 3.2 0.00 0.03 0.03 98 1020.8
20260906130537 16 0.0 3.2 0.00 0.03 0.03 98 1020.6
20260906125516 15 0.0 4.8 0.00 0.03 0.03 98 1020.5
20260906124517 15 0.0 0.0 0.00 0.03 0.03 98 1020.3
20260906123536 15 0.0 0.0 0.00 0.03 0.03 98 1020.3
20260906122516 14 0.0 0.0 0.00 0.03 0.03 98 1020.2
20260906121516 14 0.0 0.0 0.00 0.03 0.03 98 1020.2
20260906120516 14 0.0 0.0 0.00 0.03 0.03 98 1020.3
20260906115516 14 0.0 1.6 0.00 0.03 0.03 98 1020.2
20260906114516 14 0.0 1.6 0.00 0.03 0.03 98 1019.9
20260906113517 14 0.0 0.0 0.00 0.03 0.03 98 1019.8
20260906112516 14 0.0 0.0 0.00 0.03 0.03 98 1019.9
20260906111517 14 0.0 0.0 0.00 0.03 0.03 98 1019.7
20260906110516 14 0.0 0.0 0.03 0.03 0.03 98 1019.4
20260906105517 14 0.0 0.0 0.03 0.03 0.03 98 1019.4
20260906104516 14 0.0 0.0 0.03 0.03 0.03 98 1019.4
20260906103516 15 0.0 0.0 0.03 0.03 0.03 98 1019.4
20260906102517 15 0.0 0.0 0.03 0.03 0.03 98 1019.3
20260906101516 15 0.0 0.0 0.03 0.03 0.03 98 1019.3
20260906100517 15 0.0 0.0 0.00 0.00 0.00 98 1019.3
20260906095516 15 0.0 0.0 0.00 0.00 0.00 98 1019.4
20260906094516 15 0.0 1.6 0.00 0.00 0.00 98 1019.5
20260906093516 15 0.0 1.6 0.00 0.00 0.00 98 1019.3
20260906092516 15 0.0 0.0 0.00 0.00 0.00 98 1019.4
20260906091537 15 0.0 0.0 0.00 0.00 0.00 98 1019.3
20260906090516 15 0.0 0.0 0.00 0.00 0.00 98 1019.2
20260906085516 15 0.0 0.0 0.00 0.00 0.00 98 1019.2
20260906084516 15 0.0 0.0 0.00 0.00 0.00 98 1019.1
20260906083516 15 0.0 0.0 0.00 0.00 0.00 98 1019.1
20260906082536 15 0.0 1.6 0.00 0.00 0.00 98 1019.0
20260906081516 15 0.0 1.6 0.00 0.00 0.00 98 1019.1
20260906080516 15 0.0 1.6 0.00 0.00 0.00 98 1019.1
20260906075516 15 0.0 1.6 0.00 0.00 0.00 97 1019.0
20260906074516 15 0.0 0.0 0.00 0.00 0.00 98 1019.0
20260906073537 15 0.0 1.6 0.00 0.00 0.00 98 1019.1
20260906072516 15 0.0 0.0 0.00 0.00 0.00 97 1019.1
20260906071516 15 0.0 1.6 0.00 0.00 0.00 97 1019.2
20260906070516 15 0.0 0.0 0.00 0.00 0.00 97 1019.0
20260906065516 15 0.0 0.0 0.00 0.00 0.00 97 1019.1
20260906064516 15 0.0 0.0 0.00 0.00 0.00 97 1018.9
20260906063516 15 0.0 0.0 0.00 0.00 0.00 97 1018.9
20260906062536 15 0.0 0.0 0.00 0.00 0.00 97 1018.9
20260906061535 15 0.0 0.0 0.00 0.00 0.00 97 1018.7
20260906060515 15 0.0 0.0 0.00 0.00 0.00 97 1018.4
20260906055516 15 0.0 0.0 0.00 0.00 0.00 97 1018.3
20260906054516 15 0.0 0.0 0.00 0.00 0.00 97 1018.4
20260906053516 15 0.0 0.0 0.00 0.00 0.00 97 1018.5
20260906052516 15 0.0 0.0 0.00 0.00 0.00 97 1018.6
20260906051515 15 0.0 0.0 0.00 0.00 0.00 97 1018.6
20260906050536 15 0.0 0.0 0.00 0.00 0.00 97 1018.6
20260906045517 15 0.0 0.0 0.00 0.00 0.00 96 1018.3
20260906044517 15 0.0 0.0 0.00 0.00 0.00 97 1018.3
20260906043517 15 0.0 0.0 0.00 0.00 0.00 96 1018.1
20260906042517 15 0.0 0.0 0.00 0.00 0.00 96 1017.8
20260906041517 15 0.0 0.0 0.00 0.00 0.00 96 1017.7
20260906040517 16 0.0 0.0 0.00 0.00 0.00 96 1017.6
20260906035517 16 0.0 0.0 0.00 0.00 0.00 96 1017.6
20260906034517 16 0.0 0.0 0.00 0.00 0.00 96 1017.6
20260906033517 16 0.0 0.0 0.00 0.00 0.00 96 1017.9
20260906032517 17 0.0 0.0 0.00 0.00 0.00 96 1017.7
20260906031517 17 0.0 0.0 0.00 0.00 0.00 95 1017.5
20260906030538 17 0.0 0.0 0.00 0.00 0.00 95 1017.7
20260906025517 17 0.0 0.0 0.00 0.00 0.00 95 1017.6
20260906024517 17 0.0 0.0 0.00 0.00 0.00 95 1017.5
20260906023517 18 0.0 0.0 0.00 0.00 0.00 95 1017.5
20260906022517 18 0.0 0.0 0.00 0.00 0.00 95 1017.4
20260906021538 18 0.0 0.0 0.00 0.00 0.00 95 1017.4
20260906020517 18 0.0 0.0 0.00 0.00 0.00 94 1017.3
20260906015517 18 0.0 0.0 0.00 0.00 0.00 94 1017.2
20260906014517 18 0.0 0.0 0.00 0.00 0.00 93 1017.2
20260906013517 19 0.0 0.0 0.00 0.00 0.00 93 1017.1
20260906012517 19 0.0 0.0 0.00 0.00 0.00 93 1016.9
20260906011517 20 0.0 0.0 0.00 0.00 0.00 93 1016.8
20260906010516 20 0.0 0.0 0.00 0.00 0.00 90 1016.7
20260906005517 20 0.0 0.0 0.00 0.00 0.00 90 1016.9
20260906004517 21 0.0 0.0 0.00 0.00 0.00 88 1016.8
20260906003518 21 0.0 0.0 0.00 0.00 0.00 85 1016.8
20260906002517 22 0.0 0.0 0.00 0.00 0.00 83 1016.9
20260906001516 23 0.0 0.0 0.00 0.00 0.00 81 1017.0
20260906000537 25 0.0 0.0 0.00 0.00 0.00 77 1017.1
20260905235519 26 0.0 0.0 0.00 0.00 0.00 77 1017.0
20260905234517 26 0.0 1.6 0.00 0.00 0.00 78 1017.0
20260905233517 25 0.0 0.0 0.00 0.00 0.00 78 1017.1
20260905232516 25 0.0 1.6 0.00 0.00 0.00 82 1017.1
20260905231518 23 0.0 0.0 0.00 0.00 0.00 83 1017.1
20260905230517 23 0.0 3.2 0.00 0.00 0.00 83 1017.1
20260905225538 23 0.0 3.2 0.00 0.00 0.00 82 1017.1
20260905224536 23 135 1.6 4.8 0.00 0.00 0.00 81 1017.2
20260905223516 24 68 1.6 6.4 0.00 0.00 0.00 81 1017.2
20260905222517 24 113 1.6 8.0 0.00 0.00 0.00 80 1017.1
20260905221517 25 0 1.6 6.4 0.00 0.00 0.00 79 1017.1
20260905220517 24 68 1.6 3.2 0.00 0.00 0.00 80 1016.9
20260905215516 24 68 3.2 9.7 0.00 0.00 0.00 80 1016.7
20260905214516 24 23 1.6 6.4 0.00 0.00 0.00 81 1016.8
20260905213517 24 45 3.2 11.3 0.00 0.00 0.00 81 1016.9
20260905212516 23 0 3.2 8.0 0.00 0.00 0.00 82 1016.9
20260905211537 23 45 4.8 8.0 0.00 0.00 0.00 82 1017.1
20260905210536 23 68 3.2 8.0 0.00 0.00 0.00 83 1017.2
20260905205537 23 68 3.2 9.7 0.00 0.00 0.00 83 1017.2
20260905204517 23 0 1.6 6.4 0.00 0.00 0.00 85 1017.3
20260905203537 23 68 4.8 9.7 0.00 0.00 0.00 85 1017.2
20260905202516 22 0 1.6 6.4 0.00 0.00 0.00 88 1017.5
20260905201536 22 0 3.2 6.4 0.00 0.00 0.00 87 1017.5
20260905200538 22 90 3.2 6.4 0.00 0.00 0.00 89 1017.4
20260905195516 22 45 1.6 3.2 0.00 0.00 0.00 89 1017.5
20260905194517 21 23 1.6 4.8 0.00 0.00 0.00 89 1017.5
20260905193517 21 23 3.2 9.7 0.00 0.00 0.00 89 1017.4
20260905192537 21 23 3.2 8.0 0.00 0.00 0.00 89 1017.4
20260905191517 21 90 1.6 6.4 0.00 0.00 0.00 89 1017.4
20260905190516 21 135 1.6 4.8 0.00 0.00 0.00 90 1017.4
20260905185517 21 90 1.6 6.4 0.00 0.00 0.00 90 1017.3
20260905184516 21 68 1.6 4.8 0.00 0.00 0.00 90 1017.3
20260905183517 21 23 4.8 9.7 0.00 0.00 0.00 89 1017.5
20260905182537 21 23 3.2 6.4 0.00 0.00 0.00 90 1017.5
20260905181517 21 23 3.2 8.0 0.00 0.00 0.00 89 1017.6
20260905180517 21 23 3.2 6.4 0.00 0.00 0.00 89 1017.7
20260905175517 21 23 1.6 6.4 0.00 0.00 0.00 90 1017.8
20260905174516 21 90 3.2 9.7 0.00 0.00 0.00 90 1017.6
20260905173516 21 23 3.2 6.4 0.00 0.00 0.00 90 1017.6
20260905172516 21 90 1.6 8.0 0.00 0.00 0.00 90 1017.3
20260905171517 21 45 4.8 11.3 0.00 0.00 0.00 90 1017.4
20260905170516 21 23 4.8 11.3 0.00 0.00 0.00 90 1017.6
20260905165517 21 68 3.2 11.3 0.00 0.00 0.00 90 1017.7
20260905164516 21 68 4.8 12.9 0.00 0.00 0.00 90 1017.5